TimeWET,TemperatureF,Dew PointF,Humidity,Sea Level PressureIn,VisibilityMPH,Wind Direction,Wind SpeedMPH,Gust SpeedMPH,PrecipitationIn,Events,Conditions,WindDirDegrees,DateUTC
6:00 AM,50,43,68,30.11,9,SW,4.6,,,,,220,2012-12-14 06:00:00
6:00 AM,50.0,42.8,76,30.09,-9999.0,SW,4.6,-,N/A,,Clear,220,2012-12-14 06:00:00
7:00 AM,51.8,42.8,71,30.09,-9999.0,SSW,9.2,-,N/A,,Clear,200,2012-12-14 07:00:00
8:00 AM,57.2,46.4,67,29.83,-9999.0,SSW,6.9,-,N/A,,Clear,200,2012-12-14 08:00:00
9:00 AM,62,49,51,30.11,9,WSW,4.6,,,,Clear,240,2012-12-14 09:00:00
9:00 AM,62.6,48.2,59,30.09,-9999.0,WSW,4.6,-,N/A,,Clear,240,2012-12-14 09:00:00
10:00 AM,68.0,50.0,52,30.12,-9999.0,West,4.6,-,N/A,,Clear,260,2012-12-14 10:00:00
11:00 AM,69.8,50.0,49,30.12,-9999.0,SSE,2.3,-,N/A,,Clear,160,2012-12-14 11:00:00
12:00 PM,69,49,38,30.11,9,NNE,6.9,,,,Scattered Clouds,20,2012-12-14 12:00:00
12:00 PM,68.0,50.0,52,30.09,-9999.0,NNE,6.9,-,N/A,,Clear,20,2012-12-14 12:00:00
1:00 PM,68.0,50.0,52,30.06,-9999.0,NNE,6.9,-,N/A,,Clear,20,2012-12-14 13:00:00
2:00 PM,66.2,51.8,60,30.06,-9999.0,NNE,6.9,-,N/A,,Clear,20,2012-12-14 14:00:00
3:00 PM,66,54,55,30.09,9,North,6.9,,,,Scattered Clouds,0,2012-12-14 15:00:00
3:00 PM,66.2,53.6,64,30.06,-9999.0,North,6.9,-,N/A,,Clear,360,2012-12-14 15:00:00
4:00 PM,64.4,53.6,68,30.06,-9999.0,NW,4.6,-,N/A,,Clear,320,2012-12-14 16:00:00
5:00 PM,62.6,53.6,72,30.09,-9999.0,West,2.3,-,N/A,,Clear,280,2012-12-14 17:00:00
6:00 PM,57.2,50.0,77,30.12,-9999.0,South,2.3,-,N/A,,Clear,180,2012-12-14 18:00:00
7:00 PM,55.4,48.2,77,30.12,-9999.0,SW,2.3,-,N/A,,Clear,220,2012-12-14 19:00:00
8:00 PM,53.6,46.4,77,30.12,-9999.0,South,2.3,-,N/A,,Clear,180,2012-12-14 20:00:00
9:00 PM,53.6,46.4,77,30.12,-9999.0,South,2.3,-,N/A,,Clear,180,2012-12-14 21:00:00